Back to catalog

ONEWEB-0161

AliveCommunicationsPO
NORAD 48053·PAYLOAD·🇬🇧 United Kingdom

Launched Mar 25, 2021 from Vostochny Cosmodrome

Loading…

Next Passes (next 24 hours)

TLE

FreshSource: CelesTrak SupGP

Epoch: Sep 14, 2026, 23:46 UTC

1 48053C 21025M   26257.99076806  .00002960  00000+0  81161-2 0  2579
2 48053  87.8916 302.3593 0001718 100.3166 299.6766 13.13462705    18

Track ONEWEB-0161 in real time with AllMySat

Download on the App Store